Location: Unspecified
(41.9000°N, 12.4830°E)
Time: 17:58:33
(UTC+02:00)

ISS - Pass Details

Date: 19 September 2017
Orbit: 401 x 407 km, 51.6° (Epoch: 25 September)

Event Time Altitude Azimuth Distance (km) Brightness Sun altitude
Exits shadow 05:05:34 40° 349° (N) 616 -2.9 -20.5°
Maximum altitude 05:06:16 48° 30° (NNE) 538 -3.0 -20.4°
Drops below altitude 10° 05:09:28 10° 106° (ESE) 1,465 -0.3 -19.9°
Sets 05:11:35 0° 112° (ESE) 2,322 0.7 -19.5°
